User: anonymous   Login
Location: Gallinara
(44.0333°N, 8.2333°E)
Time: 13:22:50
(UTC+00:00)
Language:

Cosmos 921 Rocket - Orbit

View from above orbital plane
View from above orbital plane
View from above satellite
View from above satellite

Ground track
Ground track

The orbit data is extracted from the following two-line orbital elements,

1 10096U 77055B   21207.00947548  .00000076  00000-0  10205-4 0  9994
2 10096  75.8327 215.2273 0042910 344.3929  15.5935 14.88767663385417
Epoch (UTC): 26 July 2021 00:13:38
Eccentricity: 0.0042910
inclination: 75.8327°
perigee height: 572 km
apogee height: 632 km
right ascension of ascending node: 215.2273°
argument of perigee: 344.3929°
revolutions per day: 14.88767663
mean anomaly at epoch: 15.5935°
orbit number at epoch: 38541

The dashed part of the orbit path shows where the satellite is in the earth's shadow,  

DLR